Weather History for Covington, KY

Change the Weather History Date:

Sunday, February 24, 2013

  Actual Average Record
Temperature  
Mean Temperature 35 °F 37 °F  
Max Temperature 43 °F 46 °F 72 °F (1930)
Min Temperature 26 °F 28 °F -1 °F (1967)
Degree Days  
Heating Degree Days 30 28  
Month to date heating degree days 772 745  
Since 1 July heating degree days 3600 3717  
Cooling Degree Days 0 0  
Month to date cooling degree days 0 0  
Year to date cooling degree days 0 0  
Moisture  
Dew Point 22 °F    
Average Humidity 65    
Maximum Humidity 84    
Minimum Humidity 45    
Precipitation  
Precipitation 0.00 in 0.10 in 1.37 in (2011)
Month to date precipitation 1.09 2.41  
Year to date precipitation 4.48 5.41  
Snow  
Snow 0.00 in 0.20 in 3.60 in (1990)
Month to date snowfall 6.2 5.8  
Since 1 July snowfall 16.0 17.9  
Snow Depth 0.00 in    
Sea Level Pressure  
Sea Level Pressure 30.08 in    
Wind  
Wind Speed 6 mph (NW)    
Max Wind Speed 12 mph    
Max Gust Speed 16 mph    
Visibility 10 miles    
Events      
T = Trace of Precipitation, MM = Missing Value Source: NWS Daily Summary

Daily Weather History Graph

Daily Weather History Graph

Search for Another Location

Airport:

Trip Planner

Search our weather history database for the weather conditions in past years. The results will help you decide how hot, cold, wet, or windy it might be!

Date:

Astronomy

Feb. 24, 2013 Rise Set
Actual Time 7:17 AM EST 6:26 PM EST
Civil Twilight 6:51 AM EST 6:53 PM EST
Nautical Twilight 6:20 AM EST 7:24 PM EST
Astronomical Twilight 5:49 AM EST 7:55 PM EST
Moon 5:36 PM EST (2/24) 6:14 AM EST (2/24)
Length of Visible Light 12h 02m
Length of Day
11h 08m
Waxing Gibbous, 99% of the Moon is Illuminated
Feb 24
Waxing Gibbous
Feb 25
Full
Mar 4
Last Quarter
Mar 11
New
Mar 19
First Quarter

Hourly Weather History & Observations

Time (EST) Temp. Windchill Dew Point Humidity Pressure Visibility Wind Dir Wind Speed Gust Speed Precip Events Conditions
12:52 AM 30.0 °F 23.2 °F 23.0 °F 75% 29.96 in 9.0 mi WNW 6.9 mph - N/A   Partly Cloudy
1:52 AM 28.0 °F 20.8 °F 21.9 °F 78% 29.98 in 10.0 mi WNW 6.9 mph - N/A   Clear
2:52 AM 28.0 °F 21.7 °F 23.0 °F 81% 29.99 in 10.0 mi WNW 5.8 mph - N/A   Clear
3:33 AM 28.4 °F 21.2 °F 23.0 °F 80% 29.97 in 8.0 mi NW 6.9 mph - N/A   Mostly Cloudy
3:52 AM 27.0 °F 19.5 °F 23.0 °F 85% 29.99 in 7.0 mi WNW 6.9 mph - N/A   Mostly Cloudy
4:52 AM 27.0 °F 17.3 °F 23.0 °F 85% 30.01 in 8.0 mi NNW 10.4 mph - N/A   Mostly Cloudy
6:52 AM 26.1 °F 20.5 °F 21.0 °F 81% 30.07 in 9.0 mi WNW 4.6 mph - N/A   Mostly Cloudy
7:52 AM 26.1 °F 20.5 °F 21.0 °F 81% 30.08 in 9.0 mi WNW 4.6 mph - N/A   Mostly Cloudy
8:52 AM 28.0 °F 19.3 °F 21.0 °F 75% 30.11 in 9.0 mi NNW 9.2 mph - N/A   Overcast
9:52 AM 28.9 °F 22.8 °F 21.0 °F 72% 30.13 in 9.0 mi NW 5.8 mph - N/A   Mostly Cloudy
10:23 AM 30.2 °F 23.4 °F 21.2 °F 69% 30.10 in 10.0 mi NNW 6.9 mph - N/A   Scattered Clouds
10:52 AM 32.0 °F 24.2 °F 21.9 °F 66% 30.13 in 10.0 mi WNW 9.2 mph - N/A   Scattered Clouds
11:52 AM 34.0 °F 31.0 °F 21.9 °F 61% 30.14 in 10.0 mi NNW 3.5 mph - N/A   Partly Cloudy
12:52 PM 37.9 °F 33.5 °F 23.0 °F 55% 30.12 in 10.0 mi West 5.8 mph - N/A   Partly Cloudy
1:52 PM 39.0 °F 34.8 °F 21.9 °F 50% 30.11 in 10.0 mi West 5.8 mph 16.1 mph N/A   Partly Cloudy
2:52 PM 42.1 °F 37.1 °F 24.1 °F 49% 30.10 in 10.0 mi WNW 8.1 mph - N/A   Partly Cloudy
3:52 PM 43.0 °F 36.8 °F 23.0 °F 45% 30.10 in 10.0 mi NW 11.5 mph - N/A   Partly Cloudy
4:52 PM 42.1 °F 37.1 °F 23.0 °F 47% 30.11 in 10.0 mi NW 8.1 mph - N/A   Clear
5:52 PM 41.0 °F 39.0 °F 23.0 °F 49% 30.12 in 10.0 mi NW 3.5 mph - N/A   Clear
6:52 PM 37.9 °F 34.4 °F 23.0 °F 55% 30.12 in 10.0 mi NNW 4.6 mph - N/A   Clear
7:52 PM 35.1 °F 29.3 °F 24.1 °F 64% 30.14 in 10.0 mi North 6.9 mph - N/A   Clear
8:52 PM 34.0 °F 31.0 °F 23.0 °F 64% 30.16 in 10.0 mi North 3.5 mph - N/A   Clear
9:52 PM 33.1 °F 30.0 °F 23.0 °F 66% 30.16 in 10.0 mi NE 3.5 mph - N/A   Clear
10:52 PM 30.9 °F 25.2 °F 21.9 °F 69% 30.15 in 10.0 mi East 5.8 mph - N/A   Clear
11:52 PM 28.9 °F 21.9 °F 21.9 °F 75% 30.14 in 10.0 mi East 6.9 mph - N/A   Clear